START_TIME,STEP,MOV.,P11,t_acc.,P23,t_acc.,P27,t_acc.,A4,t_acc.
1979-07-07 03:00:23.740 ,1,0,0.,4.8,0.,4.8,0.,4.8,0.,4.8
1979-07-07 03:00:28.540 ,1,0,0.,4.8,0.,4.8,0.,4.8,0.,4.8
1979-07-07 03:00:33.340 ,1,0,0.,4.8,0.,4.8,0.,4.8,0.,4.8
1979-07-07 03:00:38.140 ,1,0,0.,4.8,0.,4.8,0.,4.8,1.,4.8
1979-07-07 03:00:42.940 ,1,0,0.,4.8,0.,4.8,0.,4.8,0.,4.8
1979-07-07 03:00:47.740 ,2,0,0.,4.8,0.,4.8,0.,4.8,0.,4.8
1979-07-07 03:00:52.540 ,2,0,0.,4.8,0.,4.8,0.,4.8,0.,4.8
1979-07-07 03:00:57.340 ,2,0,0.,4.8,0.,4.8,0.,4.8,0.,4.8
1979-07-07 03:01:02.140 ,2,0,0.,4.8,0.,4.8,0.,4.8,0.,4.8
1979-07-07 03:01:06.940 ,2,0,0.,4.8,0.,4.8,0.,4.8,0.,4.8
1979-07-07 03:01:11.740 ,2,0,0.,4.8,0.,4.8,0.,4.8,0.,4.8
1979-07-07 03:01:16.540 ,2,0,0.,4.8,0.,4.8,0.,4.8,0.,4.8
1979-07-07 03:01:21.340 ,2,0,0.,4.8,0.,4.8,0.,4.8,0.,4.8
1979-07-07 03:01:26.140 ,2,0,0.,4.8,0.,4.8,0.,4.8,0.,4.8
1979-07-07 03:01:30.940 ,2,0,0.,4.8,0.,4.8,0.,4.8,0.,4.8
1979-07-07 03:01:35.740 ,3,0,0.,4.8,0.,4.8,0.,4.8,0.,4.8
1979-07-07 03:01:40.540 ,3,0,0.,4.8,0.,4.8,0.,4.8,0.,4.8
1979-07-07 03:01:45.340 ,3,0,0.,4.8,0.,4.8,0.,4.8,0.,4.8
1979-07-07 03:01:50.140 ,3,0,0.,4.8,0.,4.8,0.,4.8,0.,4.8
1979-07-07 03:01:54.940 ,3,0,0.,4.8,0.,4.8,0.,4.8,0.,4.8
1979-07-07 03:01:59.740 ,3,0,0.,4.8,0.,4.8,0.,4.8,0.,4.8
1979-07-07 03:02:04.540 ,3,0,0.,4.8,0.,4.8,0.,4.8,0.,4.8
1979-07-07 03:02:09.340 ,3,0,0.,4.8,0.,4.8,0.,4.8,0.,4.8
1979-07-07 03:02:14.140 ,3,0,0.,4.8,0.,4.8,0.,4.8,0.,4.8
1979-07-07 03:02:18.940 ,3,0,0.,4.8,0.,4.8,0.,4.8,0.,4.8
1979-07-07 03:02:23.740 ,4,0,13.,4.8,0.,4.8,0.,4.8,0.,4.8
1979-07-07 03:02:28.540 ,4,0,98.,4.8,0.,4.8,0.,4.8,0.,4.8
1979-07-07 03:02:33.340 ,4,0,148.,4.8,0.,4.8,0.,4.8,0.,4.8
1979-07-07 03:02:38.140 ,4,0,122.,4.8,0.,4.8,0.,4.8,0.,4.8
1979-07-07 03:02:42.940 ,4,0,128.,4.8,0.,4.8,0.,4.8,0.,4.8
1979-07-07 03:02:47.740 ,4,0,144.,4.8,0.,4.8,0.,4.8,0.,4.8
1979-07-07 03:02:52.540 ,4,0,144.,4.8,0.,4.8,0.,4.8,0.,4.8
1979-07-07 03:02:57.340 ,4,0,148.,4.8,0.,4.8,0.,4.8,1.,4.8
1979-07-07 03:03:02.140 ,4,0,128.,4.8,0.,4.8,0.,4.8,1.,4.8
1979-07-07 03:03:06.940 ,4,0,136.,4.8,0.,4.8,0.,4.8,0.,4.8
1979-07-07 03:03:11.740 ,5,0,128.,4.8,0.,4.8,0.,4.8,1.,4.8
1979-07-07 03:03:16.540 ,5,0,140.,4.8,0.,4.8,0.,4.8,0.,4.8
1979-07-07 03:03:21.340 ,5,0,140.,4.8,0.,4.8,0.,4.8,0.,4.8
1979-07-07 03:03:26.140 ,5,0,152.,4.8,0.,4.8,0.,4.8,0.,4.8
1979-07-07 03:03:30.940 ,5,0,124.,4.8,0.,4.8,0.,4.8,0.,4.8
1979-07-07 03:03:35.740 ,5,0,132.,4.8,0.,4.8,0.,4.8,0.,4.8
1979-07-07 03:03:40.540 ,5,0,124.,4.8,0.,4.8,0.,4.8,0.,4.8
1979-07-07 03:03:45.340 ,5,0,114.,4.8,0.,4.8,0.,4.8,0.,4.8
1979-07-07 03:03:50.140 ,5,0,136.,4.8,0.,4.8,0.,4.8,0.,4.8
1979-07-07 03:03:54.940 ,5,0,136.,4.8,0.,4.8,0.,4.8,0.,4.8
1979-07-07 03:03:59.740 ,6,0,140.,4.8,0.,4.8,0.,4.8,0.,4.8
1979-07-07 03:04:04.540 ,6,0,144.,4.8,0.,4.8,0.,4.8,0.,4.8
1979-07-07 03:04:09.340 ,6,0,148.,4.8,0.,4.8,0.,4.8,0.,4.8
1979-07-07 03:04:14.140 ,6,0,136.,4.8,0.,4.8,0.,4.8,0.,4.8
1979-07-07 03:04:18.940 ,6,0,132.,4.8,0.,4.8,0.,4.8,0.,4.8
1979-07-07 03:04:23.740 ,6,0,152.,4.8,0.,4.8,0.,4.8,0.,4.8
1979-07-07 03:04:28.540 ,6,0,152.,4.8,0.,4.8,0.,4.8,0.,4.8
1979-07-07 03:04:33.340 ,6,0,128.,4.8,0.,4.8,0.,4.8,0.,4.8
1979-07-07 03:04:38.140 ,6,0,122.,4.8,0.,4.8,0.,4.8,0.,4.8
1979-07-07 03:04:42.940 ,6,0,128.,4.8,0.,4.8,0.,4.8,0.,4.8
1979-07-07 03:04:47.740 ,7,0,156.,4.8,0.,4.8,0.,4.8,0.,4.8
1979-07-07 03:04:52.540 ,7,0,140.,4.8,0.,4.8,0.,4.8,0.,4.8
1979-07-07 03:04:57.340 ,7,0,102.,4.8,0.,4.8,0.,4.8,0.,4.8
1979-07-07 03:05:02.140 ,7,0,88.,4.8,0.,4.8,0.,4.8,0.,4.8
1979-07-07 03:05:06.940 ,7,0,102.,4.8,0.,4.8,0.,4.8,0.,4.8
1979-07-07 03:05:11.740 ,7,0,104.,4.8,0.,4.8,0.,4.8,0.,4.8
1979-07-07 03:05:16.540 ,7,0,100.,4.8,0.,4.8,0.,4.8,0.,4.8
1979-07-07 03:05:21.340 ,7,0,110.,4.8,0.,4.8,0.,4.8,0.,4.8
1979-07-07 03:05:26.140 ,7,0,114.,4.8,0.,4.8,0.,4.8,0.,4.8
1979-07-07 03:05:30.940 ,7,0,98.,4.8,0.,4.8,0.,4.8,0.,4.8
1979-07-07 03:05:35.740 ,7,0,98.,4.8,0.,4.8,0.,4.8,0.,4.8
1979-07-07 03:05:40.540 ,7,0,106.,4.8,0.,4.8,0.,4.8,0.,4.8
1979-07-07 03:05:45.340 ,7,0,120.,4.8,0.,4.8,0.,4.8,0.,4.8
1979-07-07 03:05:50.140 ,7,0,86.,4.8,0.,4.8,0.,4.8,0.,4.8
1979-07-07 03:05:54.940 ,7,0,100.,4.8,0.,4.8,0.,4.8,0.,4.8
1979-07-07 03:05:59.740 ,7,0,102.,4.8,0.,4.8,0.,4.8,0.,4.8
1979-07-07 03:06:04.540 ,7,0,108.,4.8,0.,4.8,0.,4.8,0.,4.8
1979-07-07 03:06:09.340 ,7,0,84.,4.8,0.,4.8,0.,4.8,0.,4.8
1979-07-07 03:06:14.140 ,7,0,118.,4.8,0.,4.8,0.,4.8,0.,4.8
1979-07-07 03:06:18.940 ,7,0,108.,4.8,0.,4.8,0.,4.8,0.,4.8
1979-07-07 03:06:23.740 ,6,0,98.,4.8,0.,4.8,0.,4.8,0.,4.8
1979-07-07 03:06:28.540 ,6,0,114.,4.8,0.,4.8,0.,4.8,0.,4.8
1979-07-07 03:06:33.340 ,6,0,136.,4.8,0.,4.8,0.,4.8,0.,4.8
1979-07-07 03:06:38.140 ,6,0,140.,4.8,0.,4.8,0.,4.8,0.,4.8
1979-07-07 03:06:42.940 ,6,0,168.,4.8,0.,4.8,0.,4.8,0.,4.8
1979-07-07 03:06:47.740 ,6,0,156.,4.8,0.,4.8,0.,4.8,0.,4.8
1979-07-07 03:06:52.540 ,6,0,168.,4.8,0.,4.8,0.,4.8,0.,4.8
1979-07-07 03:06:57.340 ,6,0,184.,4.8,0.,4.8,0.,4.8,0.,4.8
1979-07-07 03:07:02.140 ,6,0,180.,4.8,0.,4.8,0.,4.8,0.,4.8
1979-07-07 03:07:06.940 ,6,0,172.,4.8,0.,4.8,0.,4.8,0.,4.8
1979-07-07 03:07:11.740 ,5,0,160.,4.8,0.,4.8,0.,4.8,0.,4.8
1979-07-07 03:07:16.540 ,5,0,172.,4.8,0.,4.8,0.,4.8,0.,4.8
1979-07-07 03:07:21.340 ,5,0,176.,4.8,0.,4.8,0.,4.8,0.,4.8
1979-07-07 03:07:26.140 ,5,0,196.,4.8,0.,4.8,0.,4.8,0.,4.8
1979-07-07 03:07:30.940 ,5,0,160.,4.8,0.,4.8,0.,4.8,0.,4.8
1979-07-07 03:07:35.740 ,5,0,164.,4.8,0.,4.8,0.,4.8,0.,4.8
1979-07-07 03:07:40.540 ,5,0,168.,4.8,0.,4.8,0.,4.8,0.,4.8
1979-07-07 03:07:45.340 ,5,0,140.,4.8,0.,4.8,0.,4.8,0.,4.8
1979-07-07 03:07:50.140 ,5,0,160.,4.8,0.,4.8,0.,4.8,1.,4.8
1979-07-07 03:07:54.940 ,5,0,132.,4.8,0.,4.8,0.,4.8,0.,4.8
1979-07-07 03:07:59.740 ,4,0,156.,4.8,0.,4.8,0.,4.8,0.,4.8
1979-07-07 03:08:04.540 ,4,0,140.,4.8,0.,4.8,0.,4.8,1.,4.8
1979-07-07 03:08:09.340 ,4,0,152.,4.8,0.,4.8,0.,4.8,0.,4.8
1979-07-07 03:08:14.140 ,4,0,152.,4.8,0.,4.8,0.,4.8,0.,4.8
1979-07-07 03:08:18.940 ,4,0,144.,4.8,0.,4.8,0.,4.8,0.,4.8
1979-07-07 03:08:23.740 ,4,0,144.,4.8,0.,4.8,0.,4.8,0.,4.8
1979-07-07 03:08:28.540 ,4,0,168.,4.8,0.,4.8,0.,4.8,0.,4.8
1979-07-07 03:08:33.340 ,4,0,144.,4.8,0.,4.8,0.,4.8,0.,4.8
1979-07-07 03:08:38.140 ,4,0,160.,4.8,0.,4.8,0.,4.8,0.,4.8
1979-07-07 03:08:42.940 ,4,0,176.,4.8,0.,4.8,0.,4.8,0.,4.8
1979-07-07 03:08:47.740 ,3,0,184.,4.8,0.,4.8,0.,4.8,0.,4.8
1979-07-07 03:08:52.540 ,3,0,160.,4.8,0.,4.8,0.,4.8,0.,4.8
1979-07-07 03:08:57.340 ,3,0,144.,4.8,0.,4.8,0.,4.8,0.,4.8
1979-07-07 03:09:02.140 ,3,0,128.,4.8,0.,4.8,0.,4.8,0.,4.8
1979-07-07 03:09:06.940 ,3,0,122.,4.8,0.,4.8,0.,4.8,0.,4.8
1979-07-07 03:09:11.740 ,3,0,148.,4.8,0.,4.8,0.,4.8,0.,4.8
1979-07-07 03:09:16.540 ,3,0,144.,4.8,0.,4.8,0.,4.8,0.,4.8
1979-07-07 03:09:21.340 ,3,0,140.,4.8,0.,4.8,0.,4.8,0.,4.8
1979-07-07 03:09:26.140 ,3,0,116.,4.8,0.,4.8,0.,4.8,0.,4.8
1979-07-07 03:09:30.940 ,3,0,122.,4.8,0.,4.8,0.,4.8,0.,4.8
1979-07-07 03:09:35.740 ,2,0,132.,4.8,0.,4.8,0.,4.8,0.,4.8
1979-07-07 03:09:40.540 ,2,0,128.,4.8,0.,4.8,0.,4.8,0.,4.8
1979-07-07 03:09:45.340 ,2,0,136.,4.8,0.,4.8,0.,4.8,0.,4.8
1979-07-07 03:09:50.140 ,2,0,152.,4.8,0.,4.8,0.,4.8,0.,4.8
1979-07-07 03:09:54.940 ,2,0,136.,4.8,0.,4.8,0.,4.8,0.,4.8
1979-07-07 03:09:59.740 ,2,0,132.,4.8,0.,4.8,0.,4.8,0.,4.8
1979-07-07 03:10:04.540 ,2,0,126.,4.8,0.,4.8,0.,4.8,0.,4.8
1979-07-07 03:10:09.340 ,2,0,152.,4.8,0.,4.8,0.,4.8,0.,4.8
1979-07-07 03:10:14.140 ,2,0,140.,4.8,0.,4.8,0.,4.8,0.,4.8
1979-07-07 03:10:18.940 ,2,0,118.,4.8,0.,4.8,0.,4.8,0.,4.8
1979-07-07 03:10:23.740 ,1,0,136.,4.8,0.,4.8,0.,4.8,0.,4.8
1979-07-07 03:10:28.540 ,1,0,124.,4.8,0.,4.8,0.,4.8,0.,4.8
1979-07-07 03:10:33.340 ,1,0,126.,4.8,0.,4.8,0.,4.8,1.,4.8
1979-07-07 03:10:38.140 ,1,0,128.,4.8,0.,4.8,0.,4.8,0.,4.8
1979-07-07 03:10:42.940 ,1,0,148.,4.8,0.,4.8,0.,4.8,0.,4.8
1979-07-07 03:10:47.740 ,1,0,126.,4.8,0.,4.8,0.,4.8,0.,4.8
1979-07-07 03:10:52.540 ,1,0,128.,4.8,0.,4.8,0.,4.8,0.,4.8
1979-07-07 03:10:57.340 ,1,0,144.,4.8,0.,4.8,0.,4.8,0.,4.8
1979-07-07 03:11:02.140 ,1,0,140.,4.8,0.,4.8,0.,4.8,0.,4.8
1979-07-07 03:11:06.940 ,1,0,124.,4.8,0.,4.8,0.,4.8,0.,4.8
1979-07-07 03:11:11.740 ,0,0,96.,4.8,0.,4.8,0.,4.8,0.,4.8
1979-07-07 03:11:16.540 ,0,0,132.,4.8,0.,4.8,0.,4.8,0.,4.8
1979-07-07 03:11:21.340 ,0,0,114.,4.8,0.,4.8,0.,4.8,0.,4.8
1979-07-07 03:11:26.140 ,0,0,106.,4.8,0.,4.8,0.,4.8,0.,4.8
1979-07-07 03:11:30.940 ,0,0,110.,4.8,0.,4.8,0.,4.8,0.,4.8
1979-07-07 03:11:35.740 ,0,0,124.,4.8,0.,4.8,0.,4.8,0.,4.8
1979-07-07 03:11:40.540 ,0,0,124.,4.8,0.,4.8,0.,4.8,0.,4.8
1979-07-07 03:11:45.340 ,0,0,114.,4.8,0.,4.8,0.,4.8,0.,4.8
1979-07-07 03:11:50.140 ,0,0,136.,4.8,0.,4.8,0.,4.8,0.,4.8
1979-07-07 03:11:54.940 ,0,0,88.,4.8,0.,4.8,0.,4.8,0.,4.8
1979-07-07 03:11:59.740 ,0,0,114.,4.8,0.,4.8,0.,4.8,0.,4.8
1979-07-07 03:12:04.540 ,0,0,100.,4.8,0.,4.8,0.,4.8,1.,4.8
1979-07-07 03:12:09.340 ,0,0,122.,4.8,0.,4.8,0.,4.8,1.,4.8
1979-07-07 03:12:14.140 ,0,0,122.,4.8,0.,4.8,0.,4.8,0.,4.8
1979-07-07 03:12:18.940 ,0,0,100.,4.8,0.,4.8,0.,4.8,0.,4.8
1979-07-07 03:12:23.740 ,0,0,112.,4.8,0.,4.8,0.,4.8,0.,4.8
1979-07-07 03:12:28.540 ,0,0,112.,4.8,0.,4.8,0.,4.8,0.,4.8
1979-07-07 03:12:33.340 ,0,0,122.,4.8,0.,4.8,0.,4.8,0.,4.8
1979-07-07 03:12:38.140 ,0,0,108.,4.8,0.,4.8,0.,4.8,0.,4.8
1979-07-07 03:12:42.940 ,0,0,110.,4.8,0.,4.8,0.,4.8,0.,4.8
1979-07-07 03:12:47.740 ,1,0,112.,4.8,0.,4.8,0.,4.8,0.,4.8
1979-07-07 03:12:52.540 ,1,0,116.,4.8,0.,4.8,0.,4.8,0.,4.8
1979-07-07 03:12:57.340 ,1,0,114.,4.8,0.,4.8,0.,4.8,0.,4.8
1979-07-07 03:13:02.140 ,1,0,116.,4.8,0.,4.8,0.,4.8,0.,4.8
1979-07-07 03:13:06.940 ,1,0,118.,4.8,0.,4.8,0.,4.8,0.,4.8
1979-07-07 03:13:11.740 ,1,0,108.,4.8,0.,4.8,0.,4.8,0.,4.8
1979-07-07 03:13:16.540 ,1,0,100.,4.8,0.,4.8,0.,4.8,0.,4.8
1979-07-07 03:13:21.340 ,1,0,94.,4.8,0.,4.8,0.,4.8,0.,4.8
1979-07-07 03:13:26.140 ,1,0,114.,4.8,0.,4.8,0.,4.8,0.,4.8
1979-07-07 03:13:30.940 ,1,0,126.,4.8,0.,4.8,0.,4.8,0.,4.8
1979-07-07 03:13:35.740 ,2,0,110.,4.8,0.,4.8,0.,4.8,0.,4.8
1979-07-07 03:13:40.540 ,2,0,98.,4.8,0.,4.8,0.,4.8,0.,4.8
1979-07-07 03:13:45.340 ,2,0,96.,4.8,0.,4.8,0.,4.8,0.,4.8
1979-07-07 03:13:50.140 ,2,0,86.,4.8,0.,4.8,0.,4.8,0.,4.8
1979-07-07 03:13:54.940 ,2,0,104.,4.8,0.,4.8,0.,4.8,0.,4.8
1979-07-07 03:13:59.740 ,2,0,122.,4.8,0.,4.8,0.,4.8,0.,4.8
1979-07-07 03:14:04.540 ,2,0,102.,4.8,0.,4.8,0.,4.8,0.,4.8
1979-07-07 03:14:09.340 ,2,0,118.,4.8,0.,4.8,0.,4.8,0.,4.8
1979-07-07 03:14:14.140 ,2,0,82.,4.8,0.,4.8,0.,4.8,0.,4.8
1979-07-07 03:14:18.940 ,2,0,112.,4.8,0.,4.8,0.,4.8,0.,4.8
1979-07-07 03:14:23.740 ,3,0,112.,4.8,0.,4.8,0.,4.8,0.,4.8
1979-07-07 03:14:28.540 ,3,0,106.,4.8,0.,4.8,0.,4.8,0.,4.8
1979-07-07 03:14:33.340 ,3,0,102.,4.8,0.,4.8,0.,4.8,0.,4.8
1979-07-07 03:14:38.140 ,3,0,86.,4.8,0.,4.8,0.,4.8,0.,4.8
1979-07-07 03:14:42.940 ,3,0,90.,4.8,0.,4.8,0.,4.8,0.,4.8
1979-07-07 03:14:47.740 ,3,0,102.,4.8,0.,4.8,0.,4.8,0.,4.8
1979-07-07 03:14:52.540 ,3,0,100.,4.8,0.,4.8,0.,4.8,0.,4.8
1979-07-07 03:14:57.340 ,3,0,90.,4.8,0.,4.8,0.,4.8,0.,4.8
1979-07-07 03:15:02.140 ,3,0,88.,4.8,0.,4.8,0.,4.8,0.,4.8
1979-07-07 03:15:06.940 ,3,0,88.,4.8,0.,4.8,0.,4.8,0.,4.8
1979-07-07 03:15:11.740 ,4,0,94.,4.8,0.,4.8,0.,4.8,0.,4.8
1979-07-07 03:15:16.540 ,4,0,98.,4.8,0.,4.8,0.,4.8,0.,4.8
1979-07-07 03:15:21.340 ,4,0,108.,4.8,0.,4.8,0.,4.8,0.,4.8
1979-07-07 03:15:26.140 ,4,0,116.,4.8,0.,4.8,0.,4.8,0.,4.8
1979-07-07 03:15:30.940 ,4,0,118.,4.8,0.,4.8,0.,4.8,0.,4.8
1979-07-07 03:15:35.740 ,0,0,124.,4.8,0.,4.8,0.,4.8,1.,4.8
1979-07-07 03:15:40.540 ,0,0,106.,4.8,0.,4.8,0.,4.8,0.,4.8
1979-07-07 03:15:45.340 ,0,0,126.,4.8,0.,4.8,0.,4.8,0.,4.8
1979-07-07 03:15:50.140 ,0,0,114.,4.8,0.,4.8,0.,4.8,0.,4.8
1979-07-07 03:15:54.940 ,0,0,118.,4.8,0.,4.8,0.,4.8,0.,4.8
1979-07-07 03:15:59.740 ,5,0,96.,4.8,0.,4.8,0.,4.8,0.,4.8
1979-07-07 03:16:04.540 ,5,0,126.,4.8,0.,4.8,0.,4.8,0.,4.8
1979-07-07 03:16:09.340 ,5,0,114.,4.8,0.,4.8,0.,4.8,0.,4.8
1979-07-07 03:16:14.140 ,5,0,110.,4.8,0.,4.8,0.,4.8,0.,4.8
1979-07-07 03:16:18.940 ,5,0,120.,4.8,0.,4.8,0.,4.8,0.,4.8
1979-07-07 03:16:23.740 ,5,0,104.,4.8,0.,4.8,0.,4.8,0.,4.8
1979-07-07 03:16:28.540 ,5,0,114.,4.8,0.,4.8,0.,4.8,0.,4.8
1979-07-07 03:16:33.340 ,5,0,122.,4.8,0.,4.8,0.,4.8,0.,4.8
1979-07-07 03:16:38.140 ,5,0,132.,4.8,0.,4.8,0.,4.8,0.,4.8
1979-07-07 03:16:42.940 ,5,0,128.,4.8,0.,4.8,0.,4.8,0.,4.8
1979-07-07 03:16:47.740 ,6,0,114.,4.8,0.,4.8,0.,4.8,0.,4.8
1979-07-07 03:16:52.540 ,6,0,128.,4.8,0.,4.8,0.,4.8,0.,4.8
1979-07-07 03:16:57.340 ,6,0,108.,4.8,0.,4.8,0.,4.8,0.,4.8
1979-07-07 03:17:02.140 ,6,0,122.,4.8,0.,4.8,0.,4.8,0.,4.8
1979-07-07 03:17:06.940 ,6,0,96.,4.8,0.,4.8,0.,4.8,0.,4.8
1979-07-07 03:17:11.740 ,6,0,114.,4.8,0.,4.8,0.,4.8,0.,4.8
1979-07-07 03:17:16.540 ,6,0,114.,4.8,0.,4.8,0.,4.8,0.,4.8
1979-07-07 03:17:21.340 ,6,0,120.,4.8,0.,4.8,0.,4.8,0.,4.8
1979-07-07 03:17:26.140 ,6,0,108.,4.8,0.,4.8,0.,4.8,0.,4.8
1979-07-07 03:17:30.940 ,6,0,106.,4.8,0.,4.8,0.,4.8,0.,4.8
1979-07-07 03:17:35.740 ,7,0,102.,4.8,0.,4.8,0.,4.8,0.,4.8
1979-07-07 03:17:40.540 ,7,0,116.,4.8,0.,4.8,0.,4.8,1.,4.8
1979-07-07 03:17:45.340 ,7,0,74.,4.8,0.,4.8,0.,4.8,0.,4.8
1979-07-07 03:17:50.140 ,7,0,102.,4.8,0.,4.8,0.,4.8,0.,4.8
1979-07-07 03:17:54.940 ,7,0,96.,4.8,0.,4.8,0.,4.8,0.,4.8
1979-07-07 03:17:59.740 ,7,0,100.,4.8,0.,4.8,0.,4.8,0.,4.8
1979-07-07 03:18:04.540 ,7,0,84.,4.8,0.,4.8,0.,4.8,0.,4.8
1979-07-07 03:18:09.340 ,7,0,86.,4.8,0.,4.8,0.,4.8,0.,4.8
1979-07-07 03:18:14.140 ,7,0,72.,4.8,0.,4.8,0.,4.8,0.,4.8
1979-07-07 03:18:18.940 ,7,0,90.,4.8,0.,4.8,0.,4.8,0.,4.8
1979-07-07 03:18:23.740 ,7,0,74.,4.8,0.,4.8,0.,4.8,0.,4.8
1979-07-07 03:18:28.540 ,7,0,84.,4.8,0.,4.8,0.,4.8,0.,4.8
1979-07-07 03:18:33.340 ,7,0,90.,4.8,0.,4.8,0.,4.8,0.,4.8
1979-07-07 03:18:38.140 ,7,0,90.,4.8,0.,4.8,0.,4.8,0.,4.8
1979-07-07 03:18:42.940 ,7,0,88.,4.8,0.,4.8,0.,4.8,0.,4.8
1979-07-07 03:18:47.740 ,7,0,74.,4.8,0.,4.8,0.,4.8,0.,4.8
1979-07-07 03:18:52.540 ,7,0,92.,4.8,0.,4.8,0.,4.8,0.,4.8
1979-07-07 03:18:57.340 ,7,0,86.,4.8,0.,4.8,0.,4.8,0.,4.8
1979-07-07 03:19:02.140 ,7,0,88.,4.8,0.,4.8,0.,4.8,0.,4.8
1979-07-07 03:19:06.940 ,7,0,84.,4.8,0.,4.8,0.,4.8,0.,4.8
1979-07-07 03:19:11.740 ,6,0,90.,4.8,0.,4.8,0.,4.8,0.,4.8
1979-07-07 03:19:16.540 ,6,0,72.,4.8,0.,4.8,0.,4.8,0.,4.8
1979-07-07 03:19:21.340 ,6,0,132.,4.8,0.,4.8,0.,4.8,0.,4.8
1979-07-07 03:19:26.140 ,6,0,112.,4.8,0.,4.8,0.,4.8,0.,4.8
1979-07-07 03:19:30.940 ,6,0,110.,4.8,0.,4.8,0.,4.8,0.,4.8
1979-07-07 03:19:35.740 ,6,0,124.,4.8,0.,4.8,0.,4.8,0.,4.8
1979-07-07 03:19:40.540 ,6,0,140.,4.8,0.,4.8,0.,4.8,0.,4.8
1979-07-07 03:19:45.340 ,6,0,132.,4.8,0.,4.8,0.,4.8,0.,4.8
1979-07-07 03:19:50.140 ,6,0,152.,4.8,0.,4.8,0.,4.8,1.,4.8
1979-07-07 03:19:54.940 ,6,0,144.,4.8,0.,4.8,0.,4.8,1.,4.8
1979-07-07 03:19:59.740 ,5,0,112.,4.8,0.,4.8,0.,4.8,0.,4.8
1979-07-07 03:20:04.540 ,5,0,136.,4.8,0.,4.8,0.,4.8,0.,4.8
1979-07-07 03:20:09.340 ,5,0,132.,4.8,0.,4.8,0.,4.8,0.,4.8
1979-07-07 03:20:14.140 ,5,0,144.,4.8,0.,4.8,0.,4.8,0.,4.8
1979-07-07 03:20:18.940 ,5,0,126.,4.8,0.,4.8,0.,4.8,0.,4.8
1979-07-07 03:20:23.740 ,5,0,136.,4.8,0.,4.8,0.,4.8,0.,4.8
1979-07-07 03:20:28.540 ,5,0,120.,4.8,0.,4.8,0.,4.8,0.,4.8
1979-07-07 03:20:33.340 ,5,0,128.,4.8,0.,4.8,0.,4.8,0.,4.8
1979-07-07 03:20:38.140 ,5,0,112.,4.8,0.,4.8,0.,4.8,0.,4.8
1979-07-07 03:20:42.940 ,5,0,136.,4.8,0.,4.8,0.,4.8,0.,4.8
1979-07-07 03:20:47.740 ,4,0,140.,4.8,0.,4.8,0.,4.8,0.,4.8
1979-07-07 03:20:52.540 ,4,0,132.,4.8,0.,4.8,0.,4.8,0.,4.8
1979-07-07 03:20:57.340 ,4,0,128.,4.8,0.,4.8,0.,4.8,0.,4.8
1979-07-07 03:21:02.140 ,4,0,128.,4.8,0.,4.8,0.,4.8,0.,4.8
1979-07-07 03:21:06.940 ,4,0,120.,4.8,0.,4.8,0.,4.8,0.,4.8
1979-07-07 03:21:11.740 ,4,0,124.,4.8,0.,4.8,0.,4.8,0.,4.8
1979-07-07 03:21:16.540 ,4,0,124.,4.8,0.,4.8,0.,4.8,0.,4.8
1979-07-07 03:21:21.340 ,4,0,114.,4.8,0.,4.8,0.,4.8,0.,4.8
1979-07-07 03:21:26.140 ,4,0,140.,4.8,0.,4.8,0.,4.8,0.,4.8
1979-07-07 03:21:30.940 ,4,0,128.,4.8,0.,4.8,0.,4.8,0.,4.8
1979-07-07 03:21:35.740 ,3,0,128.,4.8,0.,4.8,0.,4.8,0.,4.8
1979-07-07 03:21:40.540 ,3,0,126.,4.8,0.,4.8,0.,4.8,1.,4.8
1979-07-07 03:21:45.340 ,3,0,120.,4.8,0.,4.8,0.,4.8,0.,4.8
1979-07-07 03:21:50.140 ,3,0,122.,4.8,0.,4.8,0.,4.8,0.,4.8
1979-07-07 03:21:54.940 ,3,0,100.,4.8,0.,4.8,0.,4.8,0.,4.8
1979-07-07 03:21:59.740 ,3,0,116.,4.8,0.,4.8,0.,4.8,0.,4.8
1979-07-07 03:22:04.540 ,3,0,118.,4.8,0.,4.8,0.,4.8,0.,4.8
1979-07-07 03:22:09.340 ,3,0,110.,4.8,0.,4.8,0.,4.8,0.,4.8
1979-07-07 03:22:14.140 ,3,0,92.,4.8,0.,4.8,0.,4.8,1.,4.8
1979-07-07 03:22:18.940 ,3,0,106.,4.8,0.,4.8,0.,4.8,1.,4.8
1979-07-07 03:22:23.740 ,2,0,110.,4.8,0.,4.8,0.,4.8,0.,4.8
1979-07-07 03:22:28.540 ,2,0,102.,4.8,0.,4.8,0.,4.8,0.,4.8
1979-07-07 03:22:33.340 ,2,0,128.,4.8,0.,4.8,0.,4.8,0.,4.8
1979-07-07 03:22:38.140 ,2,0,112.,4.8,0.,4.8,0.,4.8,0.,4.8
1979-07-07 03:22:42.940 ,2,0,100.,4.8,0.,4.8,0.,4.8,0.,4.8
1979-07-07 03:22:47.740 ,2,0,126.,4.8,0.,4.8,0.,4.8,0.,4.8
1979-07-07 03:22:52.540 ,2,0,112.,4.8,0.,4.8,0.,4.8,0.,4.8
1979-07-07 03:22:57.340 ,2,0,120.,4.8,0.,4.8,0.,4.8,0.,4.8
1979-07-07 03:23:02.140 ,2,0,136.,4.8,0.,4.8,0.,4.8,0.,4.8
1979-07-07 03:23:06.940 ,2,0,128.,4.8,0.,4.8,0.,4.8,0.,4.8
1979-07-07 03:23:11.740 ,1,0,114.,4.8,0.,4.8,0.,4.8,0.,4.8
1979-07-07 03:23:16.540 ,1,0,132.,4.8,0.,4.8,0.,4.8,0.,4.8
1979-07-07 03:23:21.340 ,1,0,116.,4.8,0.,4.8,0.,4.8,0.,4.8
1979-07-07 03:23:26.140 ,1,0,122.,4.8,0.,4.8,0.,4.8,0.,4.8
1979-07-07 03:23:30.940 ,1,0,128.,4.8,0.,4.8,0.,4.8,0.,4.8
1979-07-07 03:23:35.740 ,1,0,136.,4.8,0.,4.8,0.,4.8,1.,4.8
1979-07-07 03:23:40.540 ,1,0,140.,4.8,0.,4.8,0.,4.8,1.,4.8
1979-07-07 03:23:45.340 ,1,0,136.,4.8,0.,4.8,0.,4.8,0.,4.8
1979-07-07 03:23:50.140 ,1,0,144.,4.8,0.,4.8,0.,4.8,0.,4.8
1979-07-07 03:23:54.940 ,1,0,160.,4.8,0.,4.8,0.,4.8,0.,4.8
1979-07-07 03:23:59.740 ,0,0,148.,4.8,0.,4.8,0.,4.8,0.,4.8
1979-07-07 03:24:04.540 ,0,0,128.,4.8,0.,4.8,0.,4.8,0.,4.8
1979-07-07 03:24:09.340 ,0,0,124.,4.8,0.,4.8,0.,4.8,1.,4.8
1979-07-07 03:24:14.140 ,0,0,148.,4.8,0.,4.8,0.,4.8,0.,4.8
1979-07-07 03:24:18.940 ,0,0,136.,4.8,0.,4.8,0.,4.8,1.,4.8
1979-07-07 03:24:23.740 ,0,0,136.,4.8,0.,4.8,0.,4.8,0.,4.8
1979-07-07 03:24:28.540 ,0,0,148.,4.8,0.,4.8,0.,4.8,1.,4.8
1979-07-07 03:24:33.340 ,0,0,136.,4.8,0.,4.8,0.,4.8,0.,4.8
1979-07-07 03:24:38.140 ,0,0,144.,4.8,0.,4.8,0.,4.8,0.,4.8
1979-07-07 03:24:42.940 ,0,0,160.,4.8,0.,4.8,0.,4.8,1.,4.8
1979-07-07 03:24:47.740 ,0,0,140.,4.8,0.,4.8,0.,4.8,0.,4.8
1979-07-07 03:24:52.540 ,0,0,164.,4.8,0.,4.8,0.,4.8,0.,4.8
1979-07-07 03:24:57.340 ,0,0,164.,4.8,0.,4.8,0.,4.8,0.,4.8
1979-07-07 03:25:02.140 ,0,0,172.,4.8,0.,4.8,0.,4.8,0.,4.8
1979-07-07 03:25:06.940 ,0,0,148.,4.8,0.,4.8,0.,4.8,0.,4.8
1979-07-07 03:25:11.740 ,0,0,168.,4.8,0.,4.8,0.,4.8,0.,4.8
1979-07-07 03:25:16.540 ,0,0,200.,4.8,0.,4.8,0.,4.8,0.,4.8
1979-07-07 03:25:21.340 ,0,0,176.,4.8,0.,4.8,0.,4.8,1.,4.8
1979-07-07 03:25:26.140 ,0,0,200.,4.8,0.,4.8,0.,4.8,0.,4.8
1979-07-07 03:25:30.940 ,0,0,168.,4.8,0.,4.8,0.,4.8,0.,4.8
1979-07-07 03:25:35.740 ,1,0,156.,4.8,0.,4.8,0.,4.8,0.,4.8
1979-07-07 03:25:40.540 ,1,0,180.,4.8,0.,4.8,0.,4.8,1.,4.8
1979-07-07 03:25:45.340 ,1,0,200.,4.8,0.,4.8,0.,4.8,0.,4.8
1979-07-07 03:25:50.140 ,1,0,176.,4.8,0.,4.8,0.,4.8,0.,4.8
1979-07-07 03:25:54.940 ,1,0,208.,4.8,0.,4.8,0.,4.8,0.,4.8
1979-07-07 03:25:59.740 ,1,0,184.,4.8,0.,4.8,0.,4.8,0.,4.8
1979-07-07 03:26:04.540 ,1,0,184.,4.8,0.,4.8,0.,4.8,0.,4.8
1979-07-07 03:26:09.340 ,1,0,180.,4.8,0.,4.8,0.,4.8,0.,4.8
1979-07-07 03:26:14.140 ,1,0,176.,4.8,0.,4.8,0.,4.8,0.,4.8
1979-07-07 03:26:18.940 ,1,0,188.,4.8,0.,4.8,0.,4.8,0.,4.8
1979-07-07 03:26:23.730 ,2,0,180.,4.8,0.,4.8,0.,4.8,0.,4.8
1979-07-07 03:26:28.540 ,2,0,200.,4.8,0.,4.8,0.,4.8,0.,4.8
1979-07-07 03:26:33.330 ,2,0,200.,4.8,0.,4.8,0.,4.8,0.,4.8
1979-07-07 03:26:38.140 ,2,0,228.,4.8,0.,4.8,0.,4.8,0.,4.8
1979-07-07 03:26:42.940 ,2,0,164.,4.8,0.,4.8,0.,4.8,0.,4.8
1979-07-07 03:26:47.730 ,2,0,208.,4.8,0.,4.8,0.,4.8,0.,4.8
1979-07-07 03:26:52.540 ,2,0,200.,4.8,0.,4.8,0.,4.8,0.,4.8
1979-07-07 03:26:57.330 ,2,0,204.,4.8,0.,4.8,0.,4.8,0.,4.8
1979-07-07 03:27:02.140 ,2,0,188.,4.8,0.,4.8,0.,4.8,0.,4.8
1979-07-07 03:27:06.940 ,2,0,192.,4.8,0.,4.8,0.,4.8,0.,4.8
1979-07-07 03:27:11.730 ,3,0,216.,4.8,0.,4.8,0.,4.8,0.,4.8
1979-07-07 03:27:16.540 ,3,0,168.,4.8,0.,4.8,0.,4.8,0.,4.8
1979-07-07 03:27:21.330 ,3,0,164.,4.8,0.,4.8,0.,4.8,0.,4.8
1979-07-07 03:27:26.140 ,3,0,144.,4.8,0.,4.8,0.,4.8,0.,4.8
1979-07-07 03:27:30.940 ,3,0,144.,4.8,0.,4.8,0.,4.8,0.,4.8
1979-07-07 03:27:35.730 ,3,0,176.,4.8,0.,4.8,0.,4.8,1.,4.8
1979-07-07 03:27:40.540 ,3,0,164.,4.8,0.,4.8,0.,4.8,0.,4.8
1979-07-07 03:27:45.330 ,3,0,184.,4.8,0.,4.8,0.,4.8,0.,4.8
1979-07-07 03:27:50.140 ,3,0,144.,4.8,0.,4.8,0.,4.8,0.,4.8
1979-07-07 03:27:54.940 ,3,0,136.,4.8,0.,4.8,0.,4.8,0.,4.8
1979-07-07 03:27:59.730 ,4,0,132.,4.8,0.,4.8,0.,4.8,0.,4.8
1979-07-07 03:28:04.540 ,4,0,126.,4.8,0.,4.8,0.,4.8,0.,4.8
1979-07-07 03:28:09.330 ,4,0,156.,4.8,0.,4.8,0.,4.8,0.,4.8
1979-07-07 03:28:14.140 ,4,0,140.,4.8,0.,4.8,0.,4.8,0.,4.8
1979-07-07 03:28:18.940 ,4,0,136.,4.8,0.,4.8,0.,4.8,0.,4.8
1979-07-07 03:28:23.730 ,4,0,136.,4.8,0.,4.8,0.,4.8,0.,4.8
1979-07-07 03:28:28.540 ,4,0,132.,4.8,0.,4.8,0.,4.8,0.,4.8
1979-07-07 03:28:33.330 ,4,0,148.,4.8,0.,4.8,0.,4.8,0.,4.8
1979-07-07 03:28:38.140 ,4,0,148.,4.8,0.,4.8,0.,4.8,0.,4.8
1979-07-07 03:28:42.940 ,4,0,140.,4.8,0.,4.8,0.,4.8,0.,4.8
1979-07-07 03:28:47.730 ,5,0,136.,4.8,0.,4.8,0.,4.8,0.,4.8
1979-07-07 03:28:52.540 ,5,0,136.,4.8,0.,4.8,0.,4.8,0.,4.8
1979-07-07 03:28:57.330 ,5,0,136.,4.8,0.,4.8,0.,4.8,0.,4.8
1979-07-07 03:29:02.140 ,5,0,156.,4.8,0.,4.8,0.,4.8,0.,4.8
1979-07-07 03:29:06.940 ,5,0,156.,4.8,0.,4.8,0.,4.8,0.,4.8
1979-07-07 03:29:11.730 ,5,0,148.,4.8,0.,4.8,0.,4.8,1.,4.8
1979-07-07 03:29:16.540 ,5,0,140.,4.8,0.,4.8,0.,4.8,0.,4.8
1979-07-07 03:29:21.330 ,5,0,148.,4.8,0.,4.8,0.,4.8,0.,4.8
1979-07-07 03:29:26.140 ,5,0,156.,4.8,0.,4.8,0.,4.8,1.,4.8
1979-07-07 03:29:30.940 ,5,0,156.,4.8,0.,4.8,0.,4.8,0.,4.8
1979-07-07 03:29:35.730 ,6,0,168.,4.8,0.,4.8,0.,4.8,0.,4.8
1979-07-07 03:29:40.540 ,6,0,168.,4.8,0.,4.8,0.,4.8,0.,4.8
1979-07-07 03:29:45.330 ,6,0,140.,4.8,0.,4.8,0.,4.8,0.,4.8
1979-07-07 03:29:50.140 ,6,0,152.,4.8,0.,4.8,0.,4.8,0.,4.8
1979-07-07 03:29:54.940 ,6,0,136.,4.8,0.,4.8,0.,4.8,0.,4.8
1979-07-07 03:29:59.730 ,6,0,128.,4.8,0.,4.8,0.,4.8,0.,4.8
1979-07-07 03:30:04.540 ,6,0,140.,4.8,0.,4.8,0.,4.8,0.,4.8
1979-07-07 03:30:09.330 ,6,0,136.,4.8,0.,4.8,0.,4.8,0.,4.8
1979-07-07 03:30:14.140 ,6,0,112.,4.8,0.,4.8,0.,4.8,0.,4.8
1979-07-07 03:30:18.940 ,6,0,118.,4.8,0.,4.8,0.,4.8,0.,4.8
1979-07-07 03:30:23.730 ,7,0,132.,4.8,0.,4.8,0.,4.8,0.,4.8
1979-07-07 03:30:28.540 ,7,0,112.,4.8,0.,4.8,0.,4.8,1.,4.8
1979-07-07 03:30:33.330 ,7,0,102.,4.8,0.,4.8,0.,4.8,0.,4.8
1979-07-07 03:30:38.140 ,7,0,92.,4.8,0.,4.8,0.,4.8,0.,4.8
1979-07-07 03:30:42.940 ,7,0,98.,4.8,0.,4.8,0.,4.8,0.,4.8
1979-07-07 03:30:47.730 ,7,0,106.,4.8,0.,4.8,0.,4.8,0.,4.8
1979-07-07 03:30:52.540 ,7,0,96.,4.8,0.,4.8,0.,4.8,0.,4.8
1979-07-07 03:30:57.330 ,7,0,100.,4.8,0.,4.8,0.,4.8,0.,4.8
1979-07-07 03:31:02.140 ,7,0,100.,4.8,0.,4.8,0.,4.8,0.,4.8
1979-07-07 03:31:06.940 ,7,0,92.,4.8,0.,4.8,0.,4.8,0.,4.8
1979-07-07 03:31:11.730 ,3,1,116.,4.8,0.,4.8,0.,4.8,0.,4.8
1979-07-07 03:31:16.540 ,3,1,132.,4.8,0.,4.8,0.,4.8,0.,4.8
1979-07-07 03:31:21.330 ,3,1,118.,4.8,0.,4.8,0.,4.8,1.,4.8
1979-07-07 03:31:26.140 ,3,1,128.,4.8,0.,4.8,0.,4.8,0.,4.8
1979-07-07 03:31:30.940 ,3,1,122.,4.8,0.,4.8,0.,4.8,0.,4.8
1979-07-07 03:31:35.730 ,0,1,116.,4.8,0.,4.8,0.,4.8,0.,4.8
1979-07-07 03:31:40.540 ,0,1,122.,4.8,0.,4.8,0.,4.8,0.,4.8
1979-07-07 03:31:45.330 ,0,1,132.,4.8,0.,4.8,0.,4.8,0.,4.8
1979-07-07 03:31:50.140 ,0,1,148.,4.8,0.,4.8,0.,4.8,0.,4.8
1979-07-07 03:31:54.940 ,0,1,128.,4.8,0.,4.8,0.,4.8,0.,4.8
1979-07-07 03:31:59.730 ,4,1,122.,4.8,0.,4.8,0.,4.8,0.,4.8
1979-07-07 03:32:04.540 ,4,1,128.,4.8,0.,4.8,0.,4.8,0.,4.8
1979-07-07 03:32:09.330 ,4,1,140.,4.8,0.,4.8,0.,4.8,0.,4.8
1979-07-07 03:32:14.140 ,4,1,106.,4.8,0.,4.8,0.,4.8,0.,4.8
1979-07-07 03:32:18.940 ,4,1,128.,4.8,0.,4.8,0.,4.8,0.,4.8